Location: Perryvale
(54.4667°N, 113.3833°W)
Time: 19:47:46
(UTC+00:00)

Vanguard 1 Rocket - Pass Details

Date: 20 May 2024
Orbit: 649 x 4220 km, 34.3° (Epoch: 19 June)

Event Time Altitude Azimuth Distance (km) Brightness Sun altitude
Rises 21:09:23 0° 257° (WSW) 6,030 12.0 50.9°
Reaches altitude 10° 21:15:47 10° 240° (WSW) 4,229 11.6 50.3°
Maximum altitude 21:21:27 16° 207° (SSW) 3,040 11.1 49.8°
Drops below altitude 10° 21:25:40 10° 171° (S) 2,970 10.5 49.4°
Sets 21:28:58 0° 149° (SSE) 3,543 10.6 49.0°
